FW1790 Weather Reports


Display with metric or nautical units.
time (UTC)temp
F
wind
direction
speed
MPH
gust
MPH
rain 1hr
in
rain 24hr
in
rain mn
in
humidity
%
barometer
mb
20260508213220 74 23 9.0 16.0 0.00 0.00 0.00 22 1015.0
20260508212721 74 14 8.0 14.0 0.00 0.00 0.00 22 1015.0
20260508212220 74 30 10.0 12.0 0.00 0.00 0.00 22 1015.0
20260508211720 74 11 8.0 13.0 0.00 0.00 0.00 22 1015.0
20260508211221 74 17 9.0 13.0 0.00 0.00 0.00 21 1015.0
20260508210721 74 16 9.0 14.0 0.00 0.00 0.00 22 1015.0
20260508210220 74 60 7.0 12.0 0.00 0.00 0.00 22 1015.0
20260508205720 74 19 14.0 18.0 0.00 0.00 0.00 22 1016.0
20260508205221 73 7 7.0 15.0 0.00 0.00 0.00 22 1016.0
20260508204720 74 23 7.0 9.0 0.00 0.00 0.00 22 1015.0
20260508204220 73 18 12.0 17.0 0.00 0.00 0.00 22 1016.0
20260508203720 74 4 9.0 15.0 0.00 0.00 0.00 21 1016.0
20260508203220 74 354 8.0 13.0 0.00 0.00 0.00 22 1016.0
20260508202720 74 0 9.0 15.0 0.00 0.00 0.00 22 1016.0
20260508202220 74 10 12.0 20.0 0.00 0.00 0.00 22 1016.0
20260508201720 74 345 9.0 16.0 0.00 0.00 0.00 22 1016.0
20260508201221 73 342 8.0 16.0 0.00 0.00 0.00 22 1016.0
20260508200720 73 358 10.0 14.0 0.00 0.00 0.00 23 1016.0
20260508200221 73 10 13.0 18.0 0.00 0.00 0.00 22 1016.0
20260508195720 74 355 9.0 16.0 0.00 0.00 0.00 23 1016.0
20260508195220 74 1 5.0 10.0 0.00 0.00 0.00 23 1016.0
20260508194720 73 4 10.0 14.0 0.00 0.00 0.00 22 1016.0
20260508194220 73 0 6.0 11.0 0.00 0.00 0.00 23 1016.0
20260508193720 73 14 10.0 16.0 0.00 0.00 0.00 23 1016.0
20260508193221 73 4 11.0 15.0 0.00 0.00 0.00 22 1016.0
20260508192720 73 4 12.0 15.0 0.00 0.00 0.00 23 1016.0
20260508192220 73 20 11.0 17.0 0.00 0.00 0.00 23 1016.0
20260508191721 73 6 11.0 16.0 0.00 0.00 0.00 23 1016.0
20260508191221 73 5 12.0 16.0 0.00 0.00 0.00 22 1016.0
20260508190720 74 2 7.0 11.0 0.00 0.00 0.00 23 1016.0
20260508190220 74 348 7.0 14.0 0.00 0.00 0.00 22 1016.0
20260508185720 74 340 9.0 13.0 0.00 0.00 0.00 23 1016.0
20260508185222 74 347 8.0 11.0 0.00 0.00 0.00 23 1016.0
20260508184247 74 351 11.0 16.0 0.00 0.00 0.00 23 1016.0
20260508183720 74 345 4.0 6.0 0.00 0.00 0.00 24 1016.0
20260508183222 74 296 3.0 7.0 0.00 0.00 0.00 24 1016.0
20260508182721 73 27 4.0 9.0 0.00 0.00 0.00 25 1016.0
20260508182220 73 349 6.0 12.0 0.00 0.00 0.00 24 1016.0
20260508181721 73 20 7.0 9.0 0.00 0.00 0.00 25 1016.0
20260508181221 72 76 2.0 4.0 0.00 0.00 0.00 26 1016.0
20260508180720 72 13 6.0 9.0 0.00 0.00 0.00 26 1017.0
20260508180221 72 9 10.0 14.0 0.00 0.00 0.00 27 1017.0
20260508175720 72 1 10.0 15.0 0.00 0.00 0.00 28 1016.0
20260508175221 71 347 3.0 6.0 0.00 0.00 0.00 30 1017.0
20260508174722 71 15 9.0 10.0 0.00 0.00 0.00 30 1017.0
20260508174222 70 52 4.0 8.0 0.00 0.00 0.00 30 1017.0
20260508173720 71 13 8.0 13.0 0.00 0.00 0.00 30 1017.0
20260508173221 70 19 6.0 8.0 0.00 0.00 0.00 31 1017.0
20260508172723 70 28 8.0 10.0 0.00 0.00 0.00 32 1017.0
20260508172222 70 359 6.0 8.0 0.00 0.00 0.00 30 1017.0
20260508171722 71 352 6.0 11.0 0.00 0.00 0.00 30 1017.0
20260508171220 70 19 4.0 7.0 0.00 0.00 0.00 30 1017.0
20260508170723 70 359 6.0 9.0 0.00 0.00 0.00 29 1017.0
20260508170221 71 31 7.0 10.0 0.00 0.00 0.00 29 1017.0
20260508165724 70 47 5.0 9.0 0.00 0.00 0.00 30 1016.0
20260508165223 70 359 5.0 9.0 0.00 0.00 0.00 29 1016.0
20260508164721 70 352 3.0 4.0 0.00 0.00 0.00 29 1017.0
20260508164223 70 58 3.0 5.0 0.00 0.00 0.00 31 1016.0
20260508163720 69 43 4.0 5.0 0.00 0.00 0.00 31 1016.0
20260508163223 69 28 5.0 7.0 0.00 0.00 0.00 30 1016.0
20260508162721 69 58 6.0 7.0 0.00 0.00 0.00 31 1016.0
20260508162224 70 350 1.0 4.0 0.00 0.00 0.00 33 1016.0
20260508161722 69 54 2.0 4.0 0.00 0.00 0.00 35 1016.0
20260508161222 69 341 1.0 4.0 0.00 0.00 0.00 36 1016.0
20260508160723 69 97 3.0 3.0 0.00 0.00 0.00 36 1016.0
20260508160221 69 98 1.0 4.0 0.00 0.00 0.00 35 1016.0
20260508155231 67 59 0.0 2.0 0.00 0.00 0.00 37 1016.0
20260508154724 67 51 1.0 2.0 0.00 0.00 0.00 38 1016.0
20260508154222 67 129 2.0 3.0 0.00 0.00 0.00 38 1016.0
20260508153720 67 153 1.0 4.0 0.00 0.00 0.00 39 1016.0
20260508153222 66 135 1.0 3.0 0.00 0.00 0.00 40 1016.0
20260508152722 65 147 3.0 4.0 0.00 0.00 0.00 41 1016.0
20260508152224 65 128 1.0 4.0 0.00 0.00 0.00 42 1016.0
20260508151721 64 143 3.0 4.0 0.00 0.00 0.00 43 1016.0
20260508151221 64 162 4.0 6.0 0.00 0.00 0.00 45 1016.0
20260508150720 64 149 3.0 5.0 0.00 0.00 0.00 45 1016.0
20260508150221 63 162 3.0 4.0 0.00 0.00 0.00 45 1016.0
20260508145721 63 130 4.0 6.0 0.00 0.00 0.00 45 1016.0
20260508145221 63 164 2.0 4.0 0.00 0.00 0.00 47 1016.0
20260508144720 62 130 2.0 4.0 0.00 0.00 0.00 48 1016.0
20260508144220 62 130 4.0 5.0 0.00 0.00 0.00 49 1016.0
20260508143721 62 140 2.0 4.0 0.00 0.00 0.00 51 1016.0
20260508143221 61 125 2.0 6.0 0.00 0.00 0.00 50 1016.0
20260508142721 61 163 1.0 3.0 0.00 0.00 0.00 52 1016.0
20260508142220 60 144 3.0 5.0 0.00 0.00 0.00 51 1016.0
20260508141720 60 156 2.0 4.0 0.00 0.00 0.00 52 1016.0
20260508141221 59 173 1.0 3.0 0.00 0.00 0.00 51 1016.0
20260508140720 59 168 1.0 3.0 0.00 0.00 0.00 51 1016.0
20260508140222 58 210 1.0 2.0 0.00 0.00 0.00 52 1016.0
20260508135720 57 201 2.0 3.0 0.00 0.00 0.00 52 1016.0
20260508135221 56 205 3.0 4.0 0.00 0.00 0.00 52 1016.0
20260508134721 56 208 2.0 3.0 0.00 0.00 0.00 52 1016.0
20260508134221 55 213 2.0 3.0 0.00 0.00 0.00 51 1016.0
20260508133721 54 236 0.0 1.0 0.00 0.00 0.00 51 1016.0
20260508133221 53 250 1.0 2.0 0.00 0.00 0.00 53 1016.0
20260508132720 53 246 2.0 2.0 0.00 0.00 0.00 53 1016.0
20260508132220 53 258 3.0 3.0 0.00 0.00 0.00 53 1016.0
20260508131728 52 246 2.0 3.0 0.00 0.00 0.00 52 1016.0
20260508131221 52 248 3.0 4.0 0.00 0.00 0.00 53 1016.0
20260508130723 51 240 2.0 3.0 0.00 0.00 0.00 53 1016.0
20260508130221 51 269 3.0 3.0 0.00 0.00 0.00 54 1016.0
20260508125721 51 263 3.0 3.0 0.00 0.00 0.00 56 1016.0
20260508125221 51 256 3.0 3.0 0.00 0.00 0.00 55 1016.0
20260508124721 51 292 3.0 3.0 0.00 0.00 0.00 56 1016.0
20260508124220 51 260 3.0 3.0 0.00 0.00 0.00 56 1016.0
20260508123720 51 262 3.0 3.0 0.00 0.00 0.00 55 1016.0
20260508123220 51 266 2.0 2.0 0.00 0.00 0.00 55 1016.0
20260508122720 51 259 2.0 2.0 0.00 0.00 0.00 55 1016.0
20260508122221 50 264 3.0 3.0 0.00 0.00 0.00 57 1016.0
20260508121720 51 264 3.0 3.0 0.00 0.00 0.00 57 1016.0
20260508121220 51 260 2.0 3.0 0.00 0.00 0.00 56 1016.0
20260508120720 51 244 2.0 3.0 0.00 0.00 0.00 58 1016.0
20260508120220 51 237 1.0 2.0 0.00 0.00 0.00 58 1016.0
20260508115720 50 228 2.0 3.0 0.00 0.00 0.00 58 1016.0
20260508115220 50 213 2.0 2.0 0.00 0.00 0.00 60 1016.0
20260508114722 50 141 0.0 1.0 0.00 0.00 0.00 60 1016.0
20260508114220 51 188 0.0 1.0 0.00 0.00 0.00 58 1016.0
20260508113720 50 219 3.0 4.0 0.00 0.00 0.00 58 1015.0
20260508113221 51 231 4.0 4.0 0.00 0.00 0.00 58 1015.0
20260508112723 50 245 3.0 4.0 0.00 0.00 0.00 58 1015.0
20260508112221 50 271 1.0 2.0 0.00 0.00 0.00 58 1016.0
20260508111721 50 284 0.0 1.0 0.00 0.00 0.00 58 1016.0
20260508111221 51 0 0.0 0.0 0.00 0.00 0.00 57 1016.0
20260508110720 51 0 0.0 0.0 0.00 0.00 0.00 57 1016.0
20260508110221 51 239 1.0 2.0 0.00 0.00 0.00 57 1015.0
20260508105722 51 0 0.0 0.0 0.00 0.00 0.00 55 1015.0
20260508105220 52 208 0.0 2.0 0.00 0.00 0.00 55 1015.0
20260508104720 52 258 2.0 3.0 0.00 0.00 0.00 53 1015.0
20260508104221 52 264 3.0 3.0 0.00 0.00 0.00 54 1015.0
20260508103720 52 277 3.0 3.0 0.00 0.00 0.00 54 1015.0
20260508103220 52 264 4.0 5.0 0.00 0.00 0.00 53 1015.0
20260508102724 52 251 3.0 4.0 0.00 0.00 0.00 54 1015.0
20260508102222 52 266 4.0 5.0 0.00 0.00 0.00 54 1015.0
20260508101720 53 276 3.0 4.0 0.00 0.00 0.00 53 1015.0
20260508101224 53 258 3.0 4.0 0.00 0.00 0.00 52 1015.0
20260508100722 52 258 4.0 4.0 0.00 0.00 0.00 56 1015.0
20260508100223 52 258 4.0 4.0 0.00 0.00 0.00 55 1015.0
20260508095722 52 231 2.0 2.0 0.00 0.00 0.00 55 1015.0
20260508095220 52 230 1.0 2.0 0.00 0.00 0.00 57 1015.0
20260508094721 52 230 3.0 3.0 0.00 0.00 0.00 56 1015.0
20260508094220 52 243 3.0 3.0 0.00 0.00 0.00 58 1015.0
20260508093720 53 263 2.0 3.0 0.00 0.00 0.00 54 1015.0
20260508093221 53 262 3.0 4.0 0.00 0.00 0.00 54 1015.0
20260508092720 53 249 4.0 5.0 0.00 0.00 0.00 54 1015.0
20260508092221 54 243 3.0 4.0 0.00 0.00 0.00 51 1015.0
20260508091720 53 194 2.0 3.0 0.00 0.00 0.00 50 1015.0
20260508091220 53 235 2.0 3.0 0.00 0.00 0.00 51 1015.0
20260508090720 53 207 1.0 2.0 0.00 0.00 0.00 54 1015.0
20260508090222 53 226 2.0 3.0 0.00 0.00 0.00 54 1015.0
20260508085720 53 247 2.0 2.0 0.00 0.00 0.00 54 1015.0
20260508084819 53 331 0.0 2.0 0.00 0.00 0.00 52 1015.0
20260508084220 54 339 2.0 3.0 0.00 0.00 0.00 51 1015.0
20260508083721 54 0 0.0 0.0 0.00 0.00 0.00 51 1015.0
20260508083220 54 64 0.0 2.0 0.00 0.00 0.00 51 1015.0
20260508082720 54 23 1.0 2.0 0.00 0.00 0.00 51 1015.0
20260508082221 55 0 0.0 0.0 0.00 0.00 0.00 49 1015.0
20260508081721 55 88 2.0 4.0 0.00 0.00 0.00 48 1015.0
20260508081220 56 255 3.0 4.0 0.00 0.00 0.00 47 1015.0
20260508080720 56 256 4.0 6.0 0.00 0.00 0.00 47 1015.0
20260508080220 56 259 5.0 6.0 0.00 0.00 0.00 46 1015.0
20260508075720 55 258 5.0 6.0 0.00 0.00 0.00 47 1015.0
20260508075220 55 264 4.0 4.0 0.00 0.00 0.00 47 1015.0
20260508074720 55 261 4.0 5.0 0.00 0.00 0.00 48 1015.0
20260508074221 55 263 5.0 6.0 0.00 0.00 0.00 48 1015.0
20260508073721 56 254 4.0 5.0 0.00 0.00 0.00 47 1015.0
20260508073221 56 244 3.0 3.0 0.00 0.00 0.00 48 1015.0
20260508072721 56 238 3.0 3.0 0.00 0.00 0.00 47 1015.0
20260508072221 56 236 4.0 5.0 0.00 0.00 0.00 47 1015.0
20260508071722 57 238 3.0 4.0 0.00 0.00 0.00 45 1015.0
20260508071220 57 235 2.0 3.0 0.00 0.00 0.00 46 1015.0
20260508070724 57 239 2.0 3.0 0.00 0.00 0.00 45 1015.0
20260508070220 57 247 4.0 5.0 0.00 0.00 0.00 45 1015.0
20260508065721 57 248 4.0 5.0 0.00 0.00 0.00 46 1015.0
20260508065220 58 239 4.0 5.0 0.00 0.00 0.00 45 1015.0
20260508064720 59 247 2.0 3.0 0.00 0.00 0.00 43 1015.0
20260508064221 60 229 4.0 6.0 0.00 0.00 0.00 41 1015.0
20260508063722 60 232 4.0 4.0 0.00 0.00 0.00 40 1015.0
20260508063220 60 275 2.0 3.0 0.00 0.00 0.00 40 1015.0
20260508062720 59 284 3.0 4.0 0.00 0.00 0.00 39 1015.0
20260508062220 58 301 3.0 5.0 0.00 0.00 0.00 41 1015.0
20260508061720 58 345 2.0 4.0 0.00 0.00 0.00 44 1015.0
20260508061225 58 353 4.0 5.0 0.00 0.00 0.00 43 1015.0
20260508060721 59 304 1.0 1.0 0.00 0.00 0.00 41 1015.0
20260508060221 60 290 2.0 2.0 0.00 0.00 0.00 41 1015.0
20260508055720 60 0 0.0 0.0 0.00 0.00 0.00 39 1015.0
20260508055220 60 237 3.0 3.0 0.00 0.00 0.00 39 1014.0
20260508054721 59 264 4.0 4.0 0.00 0.00 0.00 40 1014.0
20260508054221 59 266 4.0 4.0 0.00 0.00 0.00 41 1014.0
20260508053720 59 270 4.0 5.0 0.00 0.00 0.00 43 1014.0
20260508053221 59 275 2.0 2.0 0.00 0.00 0.00 43 1014.0
20260508052720 59 280 2.0 3.0 0.00 0.00 0.00 42 1014.0
20260508052220 59 276 3.0 4.0 0.00 0.00 0.00 41 1014.0
20260508051728 59 253 1.0 2.0 0.00 0.00 0.00 43 1015.0
20260508051220 59 128 2.0 3.0 0.00 0.00 0.00 42 1014.0
20260508050721 60 132 2.0 2.0 0.00 0.00 0.00 42 1014.0
20260508050221 60 166 2.0 3.0 0.00 0.00 0.00 41 1014.0
20260508045720 60 261 6.0 7.0 0.00 0.00 0.00 40 1014.0
20260508044750 61 263 6.0 7.0 0.00 0.00 0.00 39 1014.0
20260508044220 61 266 5.0 6.0 0.00 0.00 0.00 39 1014.0
20260508043720 61 261 5.0 7.0 0.00 0.00 0.00 39 1014.0
20260508043221 61 265 6.0 8.0 0.00 0.00 0.00 39 1014.0
20260508042722 61 264 4.0 5.0 0.00 0.00 0.00 39 1014.0
20260508042220 62 263 5.0 6.0 0.00 0.00 0.00 39 1014.0
20260508041721 62 271 6.0 6.0 0.00 0.00 0.00 39 1014.0
20260508041220 62 265 5.0 6.0 0.00 0.00 0.00 39 1014.0
20260508040721 63 271 5.0 7.0 0.00 0.00 0.00 38 1014.0
20260508040222 63 268 5.0 5.0 0.00 0.00 0.00 38 1014.0
20260508035720 63 267 3.0 4.0 0.00 0.00 0.00 37 1014.0
20260508035220 64 261 4.0 5.0 0.00 0.00 0.00 37 1014.0
20260508034721 64 262 5.0 6.0 0.00 0.00 0.00 37 1014.0
20260508034220 64 258 5.0 6.0 0.00 0.00 0.00 37 1014.0
20260508033720 64 265 6.0 7.0 0.00 0.00 0.00 37 1014.0
20260508033220 65 264 6.0 8.0 0.00 0.00 0.00 37 1014.0
20260508032720 65 270 6.0 8.0 0.00 0.00 0.00 36 1014.0
20260508032221 66 271 5.0 6.0 0.00 0.00 0.00 35 1014.0
20260508031720 66 260 5.0 6.0 0.00 0.00 0.00 35 1014.0
20260508031221 66 255 5.0 6.0 0.00 0.00 0.00 34 1014.0
20260508030721 66 256 4.0 5.0 0.00 0.00 0.00 34 1014.0
20260508030220 67 265 3.0 4.0 0.00 0.00 0.00 33 1014.0
20260508025721 68 266 3.0 3.0 0.00 0.00 0.00 32 1014.0
20260508025220 69 273 2.0 3.0 0.00 0.00 0.00 30 1014.0
20260508024720 70 284 2.0 2.0 0.00 0.00 0.00 28 1013.0
20260508024220 70 268 1.0 2.0 0.00 0.00 0.00 27 1013.0
20260508023721 70 264 1.0 2.0 0.00 0.00 0.00 28 1013.0
20260508023223 71 258 0.0 2.0 0.00 0.00 0.00 28 1014.0
20260508022720 71 260 1.0 2.0 0.00 0.00 0.00 27 1014.0
20260508022220 72 271 1.0 2.0 0.00 0.00 0.00 27 1014.0
20260508021721 73 0 0.0 0.0 0.00 0.00 0.00 25 1014.0
20260508021220 73 0 0.0 0.0 0.00 0.00 0.00 25 1013.0
20260508020720 73 0 0.0 0.0 0.00 0.00 0.00 25 1013.0
20260508020221 73 115 0.0 1.0 0.00 0.00 0.00 25 1013.0
20260508015721 73 0 0.0 0.0 0.00 0.00 0.00 25 1013.0
20260508015220 73 94 1.0 2.0 0.00 0.00 0.00 24 1013.0
20260508014721 73 96 0.0 2.0 0.00 0.00 0.00 24 1013.0
20260508014220 73 66 0.0 2.0 0.00 0.00 0.00 24 1013.0
20260508013721 73 93 4.0 4.0 0.00 0.00 0.00 24 1013.0
20260508013220 74 94 3.0 5.0 0.00 0.00 0.00 24 1013.0
20260508012720 74 80 4.0 6.0 0.00 0.00 0.00 24 1013.0
20260508012220 74 65 1.0 2.0 0.00 0.00 0.00 24 1013.0
20260508011720 74 81 2.0 3.0 0.00 0.00 0.00 24 1013.0
20260508011221 75 112 4.0 5.0 0.00 0.00 0.00 23 1013.0
20260508010721 74 141 0.0 2.0 0.00 0.00 0.00 24 1013.0
20260508010220 74 109 2.0 3.0 0.00 0.00 0.00 24 1013.0
20260508005721 73 104 3.0 4.0 0.00 0.00 0.00 24 1013.0
20260508005221 73 77 1.0 4.0 0.00 0.00 0.00 25 1013.0
20260508004720 73 97 1.0 3.0 0.00 0.00 0.00 24 1014.0
20260508004221 73 326 0.0 1.0 0.00 0.00 0.00 24 1013.0
20260508003720 73 0 0.0 0.0 0.00 0.00 0.00 24 1013.0
20260508003221 73 71 3.0 4.0 0.00 0.00 0.00 24 1013.0
20260508002721 73 79 3.0 4.0 0.00 0.00 0.00 24 1013.0
20260508002220 73 0 0.0 0.0 0.00 0.00 0.00 24 1014.0
20260508001726 73 77 4.0 6.0 0.00 0.00 0.00 24 1014.0
20260508001221 73 352 1.0 2.0 0.00 0.00 0.00 24 1014.0
20260508000721 74 81 4.0 5.0 0.00 0.00 0.00 24 1014.0
20260508000220 74 78 3.0 4.0 0.00 0.00 0.00 25 1014.0
20260507235720 74 44 0.0 1.0 0.00 0.00 0.00 24 1014.0
20260507235221 74 62 5.0 7.0 0.00 0.00 0.00 24 1014.0
20260507234721 74 36 4.0 6.0 0.00 0.00 0.00 24 1014.0
20260507234220 75 3 4.0 8.0 0.00 0.00 0.00 23 1014.0
20260507233721 75 15 3.0 6.0 0.00 0.00 0.00 24 1014.0
20260507233220 75 14 6.0 10.0 0.00 0.00 0.00 23 1013.0
20260507232720 74 12 6.0 9.0 0.00 0.00 0.00 23 1013.0
20260507232220 74 16 4.0 7.0 0.00 0.00 0.00 24 1014.0
20260507231721 73 59 4.0 6.0 0.00 0.00 0.00 25 1014.0
20260507231220 74 28 4.0 8.0 0.00 0.00 0.00 24 1014.0
20260507230721 75 39 7.0 11.0 0.00 0.00 0.00 24 1014.0
20260507230221 75 40 7.0 10.0 0.00 0.00 0.00 24 1014.0
20260507225720 75 0 4.0 5.0 0.00 0.00 0.00 23 1014.0
20260507225220 75 348 4.0 9.0 0.00 0.00 0.00 23 1014.0
20260507224720 75 352 6.0 9.0 0.00 0.00 0.00 23 1014.0
20260507224220 74 8 6.0 9.0 0.00 0.00 0.00 24 1014.0
20260507223720 74 0 6.0 8.0 0.00 0.00 0.00 23 1014.0
20260507223220 75 50 5.0 7.0 0.00 0.00 0.00 24 1014.0
20260507222721 75 47 5.0 7.0 0.00 0.00 0.00 23 1014.0
20260507222220 74 23 2.0 5.0 0.00 0.00 0.00 22 1014.0
20260507221721 74 6 5.0 8.0 0.00 0.00 0.00 23 1014.0
20260507221220 74 7 7.0 10.0 0.00 0.00 0.00 22 1015.0
20260507220721 74 27 6.0 7.0 0.00 0.00 0.00 23 1015.0
20260507220221 75 359 8.0 11.0 0.00 0.00 0.00 22 1015.0
20260507215720 75 3 8.0 13.0 0.00 0.00 0.00 22 1015.0
20260507215221 75 0 5.0 9.0 0.00 0.00 0.00 22 1015.0
20260507214720 75 348 2.0 2.0 0.00 0.00 0.00 22 1015.0
20260507214221 75 320 2.0 4.0 0.00 0.00 0.00 22 1015.0
20260507213720 75 17 5.0 10.0 0.00 0.00 0.00 22 1015.0